Flag for Germany Weather past 2 weeks in Bernburg (Saale), Saxony-Anhalt, Germany

Now
32 °F

Overcast.


Feels Like: 32 °F
Forecast: 24 / 30 °F
Wind: 2 mph from Northwest

Location: Magdeburg

Current Time: Dec 26, 2014 at 9:00:00 AM

Latest Report: Dec 26, 2014 at 8:00 AM


Visibility: 13 mi

Pressure: 30.34 "Hg

Humidity: 90%

Dew point: 30 °F

Location of Bernburg (Saale)Location

Historic Weather in Bernburg (Saale) — Graph

°F

Bernburg (Saale) temperature yesterday

Maximum temperature yesterday: 44 °F (at 3:00 PM)
Minimum temperature yesterday: 34 °F (at 11:00 PM)
Average temperature yesterday: 41 °F

Past Weeks' High & Low Weather Summary

 TemperatureHumidityPressure
High56 °F (Dec 18, 11:00 PM)97% (Dec 17, 7:00 PM)30.34 "Hg (Dec 17, 7:00 PM)
Low28 °F (Dec 15, 3:00 AM)61% (Dec 25, 3:00 PM)29.38 "Hg (Dec 12, 5:00 PM)
Average43 °F82%29.88 "Hg
* Reported Dec 11 8:00 AM — Dec 26 8:00 AM, Bernburg (Saale), Weather by CustomWeather, © 2014

Note: Actual official high and low records may vary slightly from our data, if they occured in-between our weather recording intervals... More about our weather records

Advertising

Bernburg (Saale) weather history for previous 24 hours

 ConditionsComfort  
Time TempWeatherWind HumidityBarometerVisibility
8:00 AM
Dec 26
32 °FOvercast.2 mph90%30.34 "Hg12 mi
7:00 AM33 °FLight snow. Overcast.2 mph92%30.33 "Hg12 mi
6:00 AM33 °FOvercast.2 mph89%30.32 "Hg19 mi
5:00 AM34 °FOvercast.2 mph92%30.32 "Hg11 mi
3:00 AM34 °FLight snow. Low clouds.2 mph96%30.30 "Hg4 mi
2:00 AM34 °FDrizzle. Low clouds.2 mph96%30.29 "Hg5 mi
1:00 AM34 °FDrizzle. Low clouds.2 mph94%30.27 "Hg6 mi
12:00 AM34 °FDrizzle. Overcast.2 mph94%30.25 "Hg34 mi
11:00 PM
Dec 25
34 °FLight snow. Low clouds.3 mph94%30.22 "Hg7 mi
9:00 PM36 °FLight rain. Low clouds.6 mph92%30.14 "Hg10 mi
8:00 PM38 °FDrizzle. Overcast.7 mph85%30.09 "Hg25 mi
7:00 PM41 °FOvercast.7 mph72%30.05 "Hg19 mi
6:00 PM41 °FPassing clouds.8 mph67%30.04 "Hg19 mi
5:00 PM41 °FPassing clouds.6 mph65%30.03 "Hg28 mi
3:00 PM44 °FScattered clouds.8 mph61%30.02 "Hg25 mi
2:00 PM42 °FScattered clouds.9 mph68%30.01 "Hg25 mi
1:00 PM43 °FScattered clouds.8 mph76%30.01 "Hg22 mi
12:00 PM43 °FOvercast.9 mph76%30.00 "Hg25 mi
11:00 AM43 °FSprinkles. Overcast.8 mph75%30.01 "Hg25 mi
9:00 AM41 °FScattered clouds.7 mph72%30.00 "Hg34 mi
Weather by CustomWeather, © 2014

See weather overviewHow to use our weather pages